Time,TemperatureF,DewpointF,PressureIn,WindDirection,WindDirectionDegrees,WindSpeedMPH,WindSpeedGustMPH,Humidity,HourlyPrecipIn,Conditions,Clouds,dailyrainin,SoftwareType,DateUTC
2013-02-23 00:00:00,36.5,33.6,29.97,South,182,8.0,12.0,89,0.00,,---,0.48,VWS V13.00,2013-02-23 08:00:00,
2013-02-23 00:05:00,36.5,33.6,29.97,SW,216,1.0,12.0,89,0.00,,---,0.48,VWS V13.00,2013-02-23 08:05:00,
2013-02-23 00:10:00,36.5,33.6,29.98,South,182,3.0,10.0,89,0.00,,---,0.00,VWS V13.00,2013-02-23 08:10:00,
2013-02-23 00:15:00,36.5,33.6,29.98,South,181,1.0,10.0,89,0.00,,---,0.00,VWS V13.00,2013-02-23 08:15:00,
2013-02-23 00:20:00,36.5,33.6,29.98,SW,220,1.0,10.0,89,0.00,,---,0.00,VWS V13.00,2013-02-23 08:20:00,
2013-02-23 00:25:00,36.5,33.8,29.98,SSE,148,2.0,10.0,90,0.00,,---,0.00,VWS V13.00,2013-02-23 08:25:00,
2013-02-23 00:30:00,36.5,33.6,29.98,South,171,2.0,10.0,89,0.00,,---,0.00,VWS V13.00,2013-02-23 08:30:00,
2013-02-23 00:35:00,36.5,33.6,29.98,SSW,200,1.0,10.0,89,0.00,,---,0.00,VWS V13.00,2013-02-23 08:35:00,
2013-02-23 00:40:00,36.5,33.6,29.98,WSW,240,0.0,6.0,89,0.00,,---,0.00,VWS V13.00,2013-02-23 08:40:00,
2013-02-23 00:45:00,36.5,33.6,29.98,SW,220,0.0,11.0,89,0.00,,---,0.00,VWS V13.00,2013-02-23 08:45:00,
2013-02-23 00:50:00,36.5,33.6,29.98,South,184,5.0,11.0,89,0.00,,---,0.00,VWS V13.00,2013-02-23 08:50:00,
2013-02-23 00:55:00,36.5,33.6,29.99,SW,226,2.0,11.0,89,0.00,,---,0.00,VWS V13.00,2013-02-23 08:55:00,
2013-02-23 01:00:00,36.5,33.8,29.99,South,174,2.0,13.0,90,0.00,,---,0.00,VWS V13.00,2013-02-23 09:00:00,
2013-02-23 01:05:00,36.5,33.6,29.99,SSW,210,3.0,13.0,89,0.00,,---,0.00,VWS V13.00,2013-02-23 09:05:00,
2013-02-23 01:10:00,36.5,33.6,30.00,South,176,3.0,10.0,89,0.00,,---,0.00,VWS V13.00,2013-02-23 09:10:00,
2013-02-23 01:15:00,36.3,33.7,30.00,South,169,3.0,10.0,90,0.00,,---,0.00,VWS V13.00,2013-02-23 09:15:00,
2013-02-23 01:20:00,36.3,33.7,30.00,SSW,213,2.0,10.0,90,0.00,,---,0.00,VWS V13.00,2013-02-23 09:20:00,
2013-02-23 01:25:00,36.3,33.7,30.00,SW,216,5.0,11.0,90,0.00,,---,0.00,VWS V13.00,2013-02-23 09:25:00,
2013-02-23 01:30:00,36.3,33.7,30.00,SSW,209,3.0,11.0,90,0.00,,---,0.00,VWS V13.00,2013-02-23 09:30:00,
2013-02-23 01:35:00,36.3,33.4,30.00,SSW,198,0.0,14.0,89,0.00,,---,0.00,VWS V13.00,2013-02-23 09:35:00,
2013-02-23 01:40:00,36.3,33.4,30.00,SSW,209,2.0,10.0,89,0.00,,---,0.00,VWS V13.00,2013-02-23 09:40:00,
2013-02-23 01:45:00,36.5,33.6,30.00,WSW,250,1.0,10.0,89,0.00,,---,0.00,VWS V13.00,2013-02-23 09:45:00,
2013-02-23 01:50:00,36.5,33.6,30.00,SSW,212,2.0,10.0,89,0.00,,---,0.00,VWS V13.00,2013-02-23 09:50:00,
2013-02-23 01:55:00,36.5,33.3,30.00,SSW,208,1.0,10.0,88,0.00,,---,0.00,VWS V13.00,2013-02-23 09:55:00,
2013-02-23 02:00:00,36.5,33.3,30.00,WSW,251,5.0,10.0,88,0.00,,---,0.00,VWS V13.00,2013-02-23 10:00:00,
2013-02-23 02:05:00,36.6,33.4,30.00,South,179,0.0,10.0,88,0.00,,---,0.00,VWS V13.00,2013-02-23 10:05:00,
2013-02-23 02:10:00,36.6,33.4,30.00,SSW,195,0.0,10.0,88,0.00,,---,0.00,VWS V13.00,2013-02-23 10:10:00,
2013-02-23 02:15:00,36.8,33.6,30.00,SW,233,7.0,10.0,88,0.00,,---,0.00,VWS V13.00,2013-02-23 10:15:00,
2013-02-23 02:20:00,36.8,33.3,30.00,SW,223,3.0,10.0,87,0.00,,---,0.00,VWS V13.00,2013-02-23 10:20:00,
2013-02-23 02:25:00,36.9,33.4,30.00,SSW,195,0.0,10.0,87,0.00,,---,0.00,VWS V13.00,2013-02-23 10:25:00,
2013-02-23 02:30:00,36.9,33.4,30.00,South,186,0.0,10.0,87,0.00,,---,0.00,VWS V13.00,2013-02-23 10:30:00,
2013-02-23 02:35:00,37.0,33.5,30.00,SW,234,3.0,10.0,87,0.00,,---,0.00,VWS V13.00,2013-02-23 10:35:00,
2013-02-23 02:40:00,37.0,33.5,30.00,East,82,1.0,6.0,87,0.00,,---,0.00,VWS V13.00,2013-02-23 10:40:00,
2013-02-23 02:45:00,37.0,33.8,30.00,SSW,193,3.0,6.0,88,0.00,,---,0.00,VWS V13.00,2013-02-23 10:45:00,
2013-02-23 02:50:00,36.9,33.7,30.00,SW,220,0.0,8.0,88,0.00,,---,0.00,VWS V13.00,2013-02-23 10:50:00,
2013-02-23 02:55:00,36.9,33.7,30.00,South,175,0.0,8.0,88,0.00,,---,0.00,VWS V13.00,2013-02-23 10:55:00,
2013-02-23 03:00:00,36.9,33.7,30.00,SSW,200,1.0,8.0,88,0.00,,---,0.00,VWS V13.00,2013-02-23 11:00:00,
2013-02-23 03:05:00,36.9,33.7,30.00,SW,232,0.0,8.0,88,0.00,,---,0.00,VWS V13.00,2013-02-23 11:05:00,
2013-02-23 03:10:00,37.0,33.8,30.00,WNW,296,2.0,13.0,88,0.00,,---,0.00,VWS V13.00,2013-02-23 11:10:00,
2013-02-23 03:15:00,37.2,33.7,30.00,South,184,0.0,13.0,87,0.00,,---,0.00,VWS V13.00,2013-02-23 11:15:00,
2013-02-23 03:20:00,37.2,33.7,30.00,South,175,1.0,13.0,87,0.00,,---,0.00,VWS V13.00,2013-02-23 11:20:00,
2013-02-23 03:25:00,37.3,33.5,30.00,SW,232,4.0,13.0,86,0.00,,---,0.00,VWS V13.00,2013-02-23 11:25:00,
2013-02-23 03:30:00,37.5,33.7,30.00,SSW,205,0.0,13.0,86,0.00,,---,0.00,VWS V13.00,2013-02-23 11:30:00,
2013-02-23 03:35:00,37.5,34.0,30.00,SSW,200,3.0,17.0,87,0.00,,---,0.00,VWS V13.00,2013-02-23 11:35:00,
2013-02-23 03:40:00,37.5,34.0,30.01,SW,219,0.0,8.0,87,0.00,,---,0.00,VWS V13.00,2013-02-23 11:40:00,
2013-02-23 03:45:00,37.5,34.0,30.01,SSW,213,3.0,10.0,87,0.00,,---,0.00,VWS V13.00,2013-02-23 11:45:00,
2013-02-23 03:50:00,37.5,34.0,30.01,West,263,6.0,13.0,87,0.00,,---,0.00,VWS V13.00,2013-02-23 11:50:00,
2013-02-23 03:55:00,37.5,34.0,30.01,South,189,7.0,13.0,87,0.00,,---,0.00,VWS V13.00,2013-02-23 11:55:00,
2013-02-23 04:00:00,37.5,34.0,30.01,SE,133,3.0,13.0,87,0.00,,---,0.00,VWS V13.00,2013-02-23 12:00:00,
2013-02-23 04:05:00,37.5,34.0,30.01,SW,224,0.0,13.0,87,0.00,,---,0.00,VWS V13.00,2013-02-23 12:05:00,
2013-02-23 04:10:00,37.6,34.1,30.01,WSW,237,1.0,8.0,87,0.00,,---,0.00,VWS V13.00,2013-02-23 12:10:00,
2013-02-23 04:15:00,37.5,34.3,30.01,NW,305,0.0,8.0,88,0.00,,---,0.00,VWS V13.00,2013-02-23 12:15:00,
2013-02-23 04:20:00,37.5,34.3,30.01,SW,229,6.0,8.0,88,0.00,,---,0.00,VWS V13.00,2013-02-23 12:20:00,
2013-02-23 04:25:00,37.5,34.3,30.02,South,185,2.0,8.0,88,0.00,,---,0.00,VWS V13.00,2013-02-23 12:25:00,
2013-02-23 04:30:00,37.5,34.3,30.02,SSE,168,2.0,8.0,88,0.00,,---,0.00,VWS V13.00,2013-02-23 12:30:00,
2013-02-23 04:35:00,37.5,34.6,30.02,SSW,200,2.0,10.0,89,0.00,,---,0.00,VWS V13.00,2013-02-23 12:35:00,
2013-02-23 04:40:00,37.5,34.6,30.03,WSW,258,3.0,6.0,89,0.00,,---,0.00,VWS V13.00,2013-02-23 12:40:00,
2013-02-23 04:44:00,37.6,34.7,30.03,WSW,248,0.0,9.0,89,0.00,,---,0.00,VWS V13.00,2013-02-23 12:44:00,
2013-02-23 04:49:00,37.6,34.7,30.03,South,178,2.0,9.0,89,0.00,,---,0.00,VWS V13.00,2013-02-23 12:49:00,
2013-02-23 04:54:00,37.8,34.9,30.03,WSW,237,2.0,10.0,89,0.00,,---,0.00,VWS V13.00,2013-02-23 12:54:00,
2013-02-23 04:59:00,37.8,34.6,30.03,South,191,5.0,10.0,88,0.00,,---,0.00,VWS V13.00,2013-02-23 12:59:00,
2013-02-23 05:04:00,37.9,34.7,30.03,SSW,193,4.0,10.0,88,0.00,,---,0.00,VWS V13.00,2013-02-23 13:04:00,
2013-02-23 05:09:00,37.9,34.7,30.03,South,186,1.0,11.0,88,0.00,,---,0.00,VWS V13.00,2013-02-23 13:09:00,
2013-02-23 05:14:00,37.9,34.7,30.03,SW,230,2.0,11.0,88,0.00,,---,0.00,VWS V13.00,2013-02-23 13:14:00,
2013-02-23 05:19:00,37.9,34.7,30.03,SW,217,3.0,11.0,88,0.00,,---,0.00,VWS V13.00,2013-02-23 13:19:00,
2013-02-23 05:24:00,38.0,35.0,30.05,SW,232,0.0,11.0,89,0.00,,---,0.00,VWS V13.00,2013-02-23 13:24:00,
2013-02-23 05:29:00,38.0,35.0,30.05,SSW,206,1.0,11.0,89,0.00,,---,0.00,VWS V13.00,2013-02-23 13:29:00,
2013-02-23 05:34:00,38.0,35.0,30.05,SW,220,7.0,11.0,89,0.00,,---,0.00,VWS V13.00,2013-02-23 13:34:00,
2013-02-23 05:39:00,38.2,35.0,30.06,SSW,198,1.0,11.0,88,0.00,,---,0.00,VWS V13.00,2013-02-23 13:39:00,
2013-02-23 05:44:00,38.2,35.0,30.06,West,260,2.0,11.0,88,0.00,,---,0.00,VWS V13.00,2013-02-23 13:44:00,
2013-02-23 05:49:00,38.3,35.1,30.06,West,263,5.0,11.0,88,0.00,,---,0.00,VWS V13.00,2013-02-23 13:49:00,
2013-02-23 05:54:00,38.3,35.1,30.06,SW,236,3.0,11.0,88,0.00,,---,0.00,VWS V13.00,2013-02-23 13:54:00,
2013-02-23 05:59:00,38.3,34.8,30.06,SSW,198,0.0,11.0,87,0.00,,---,0.00,VWS V13.00,2013-02-23 13:59:00,
2013-02-23 06:04:00,38.5,35.0,30.06,WSW,258,4.0,11.0,87,0.00,,---,0.00,VWS V13.00,2013-02-23 14:04:00,
2013-02-23 06:09:00,38.6,35.1,30.07,SSW,196,4.0,7.0,87,0.00,,---,0.00,VWS V13.00,2013-02-23 14:09:00,
2013-02-23 06:14:00,38.6,34.8,30.07,South,188,0.0,8.0,86,0.00,,---,0.00,VWS V13.00,2013-02-23 14:14:00,
2013-02-23 06:19:00,38.8,35.0,30.07,SSW,200,1.0,8.0,86,0.00,,---,0.00,VWS V13.00,2013-02-23 14:19:00,
2013-02-23 06:24:00,38.8,35.0,30.08,SSE,151,2.0,10.0,86,0.00,,---,0.00,VWS V13.00,2013-02-23 14:24:00,
2013-02-23 06:29:00,38.8,35.0,30.08,SSW,196,3.0,11.0,86,0.00,,---,0.00,VWS V13.00,2013-02-23 14:29:00,
2013-02-23 06:34:00,38.8,35.0,30.08,SSW,196,0.0,11.0,86,0.00,,---,0.00,VWS V13.00,2013-02-23 14:34:00,
2013-02-23 06:39:00,38.8,35.0,30.08,SSW,200,0.0,3.0,86,0.00,,---,0.00,VWS V13.00,2013-02-23 14:39:00,
2013-02-23 06:44:00,38.8,35.0,30.08,South,174,1.0,8.0,86,0.00,,---,0.00,VWS V13.00,2013-02-23 14:44:00,
2013-02-23 06:49:00,38.8,35.0,30.08,West,275,3.0,8.0,86,0.00,,---,0.00,VWS V13.00,2013-02-23 14:49:00,
2013-02-23 06:54:00,38.8,34.7,30.09,West,280,3.0,11.0,85,0.00,,---,0.00,VWS V13.00,2013-02-23 14:54:00,
2013-02-23 06:59:00,38.8,34.7,30.09,SSW,195,3.0,11.0,85,0.00,,---,0.00,VWS V13.00,2013-02-23 14:59:00,
2013-02-23 07:04:00,38.9,34.8,30.09,SSW,195,2.0,11.0,85,0.00,,---,0.00,VWS V13.00,2013-02-23 15:04:00,
2013-02-23 07:09:00,38.9,34.8,30.10,South,172,0.0,5.0,85,0.00,,---,0.00,VWS V13.00,2013-02-23 15:09:00,
2013-02-23 07:14:00,38.9,34.8,30.10,SSW,203,3.0,6.0,85,0.00,,---,0.00,VWS V13.00,2013-02-23 15:14:00,
2013-02-23 07:19:00,38.9,34.8,30.10,South,186,5.0,8.0,85,0.00,,---,0.00,VWS V13.00,2013-02-23 15:19:00,
2013-02-23 07:24:00,38.9,34.8,30.10,SSE,148,0.0,8.0,85,0.00,,---,0.00,VWS V13.00,2013-02-23 15:24:00,
2013-02-23 07:29:00,38.9,34.8,30.10,South,174,1.0,8.0,85,0.00,,---,0.00,VWS V13.00,2013-02-23 15:29:00,
2013-02-23 07:34:00,38.9,34.8,30.10,SW,222,0.0,8.0,85,0.00,,---,0.00,VWS V13.00,2013-02-23 15:34:00,
2013-02-23 07:39:00,38.9,34.8,30.12,South,186,0.0,10.0,85,0.00,,---,0.00,VWS V13.00,2013-02-23 15:39:00,
2013-02-23 07:44:00,39.1,35.0,30.12,SSW,198,0.0,14.0,85,0.00,,---,0.00,VWS V13.00,2013-02-23 15:44:00,
2013-02-23 07:49:00,39.1,34.7,30.12,SW,229,1.0,14.0,84,0.00,,---,0.00,VWS V13.00,2013-02-23 15:49:00,
2013-02-23 07:54:00,39.1,34.7,30.13,WSW,254,4.0,14.0,84,0.00,,---,0.00,VWS V13.00,2013-02-23 15:54:00,
2013-02-23 07:59:00,39.2,34.8,30.13,SW,226,2.0,14.0,84,0.00,,---,0.00,VWS V13.00,2013-02-23 15:59:00,
2013-02-23 08:04:00,39.2,34.8,30.13,SW,216,2.0,14.0,84,0.00,,---,0.00,VWS V13.00,2013-02-23 16:04:00,
2013-02-23 08:09:00,39.3,34.9,30.13,SW,215,0.0,5.0,84,0.00,,---,0.00,VWS V13.00,2013-02-23 16:09:00,
2013-02-23 08:14:00,39.3,34.9,30.13,WSW,240,5.0,6.0,84,0.00,,---,0.00,VWS V13.00,2013-02-23 16:14:00,
2013-02-23 08:19:00,39.3,34.9,30.13,South,189,0.0,6.0,84,0.00,,---,0.00,VWS V13.00,2013-02-23 16:19:00,
2013-02-23 08:24:00,39.3,34.6,30.15,SSE,154,3.0,7.0,83,0.00,,---,0.00,VWS V13.00,2013-02-23 16:24:00,
2013-02-23 08:29:00,39.5,34.8,30.15,SSW,210,0.0,7.0,83,0.00,,---,0.00,VWS V13.00,2013-02-23 16:29:00,
2013-02-23 08:34:00,39.5,34.8,30.15,SW,232,0.0,7.0,83,0.00,,---,0.00,VWS V13.00,2013-02-23 16:34:00,
2013-02-23 08:39:00,39.6,34.9,30.16,SW,219,0.0,5.0,83,0.00,,---,0.00,VWS V13.00,2013-02-23 16:39:00,
2013-02-23 08:44:00,39.8,35.1,30.16,SSW,203,4.0,5.0,83,0.00,,---,0.00,VWS V13.00,2013-02-23 16:44:00,
2013-02-23 08:49:00,39.8,34.8,30.16,SSW,198,2.0,5.0,82,0.00,,---,0.00,VWS V13.00,2013-02-23 16:49:00,
2013-02-23 08:54:00,39.9,34.9,30.17,South,185,1.0,7.0,82,0.00,,---,0.00,VWS V13.00,2013-02-23 16:54:00,
2013-02-23 08:59:00,39.9,34.5,30.17,SSW,195,2.0,10.0,81,0.00,,---,0.01,VWS V13.00,2013-02-23 16:59:00,
2013-02-23 09:04:00,40.1,34.8,30.17,WSW,258,3.0,11.0,81,0.01,,---,0.01,VWS V13.00,2013-02-23 17:04:00,
2013-02-23 09:09:00,40.2,34.8,30.17,SSW,196,3.0,5.0,81,0.01,,---,0.01,VWS V13.00,2013-02-23 17:09:00,
2013-02-23 09:14:00,40.2,34.8,30.17,SSW,210,0.0,10.0,81,0.01,,---,0.01,VWS V13.00,2013-02-23 17:14:00,
2013-02-23 09:19:00,40.3,34.9,30.17,WSW,239,0.0,10.0,81,0.01,,---,0.01,VWS V13.00,2013-02-23 17:19:00,
2013-02-23 09:24:00,40.3,34.6,30.18,South,189,4.0,10.0,80,0.01,,---,0.01,VWS V13.00,2013-02-23 17:24:00,
2013-02-23 09:29:00,40.3,34.3,30.18,SW,222,0.0,10.0,79,0.01,,---,0.01,VWS V13.00,2013-02-23 17:29:00,
2013-02-23 09:34:00,40.5,34.5,30.18,WSW,244,3.0,10.0,79,0.01,,---,0.01,VWS V13.00,2013-02-23 17:34:00,
2013-02-23 09:39:00,40.5,34.5,30.19,SW,220,0.0,6.0,79,0.01,,---,0.01,VWS V13.00,2013-02-23 17:39:00,
2013-02-23 09:44:00,40.6,34.6,30.19,South,188,3.0,6.0,79,0.01,,---,0.01,VWS V13.00,2013-02-23 17:44:00,
2013-02-23 09:49:00,40.8,34.5,30.19,SSW,198,1.0,8.0,78,0.01,,---,0.01,VWS V13.00,2013-02-23 17:49:00,
2013-02-23 09:54:00,40.8,34.5,30.19,SSW,193,3.0,8.0,78,0.01,,---,0.01,VWS V13.00,2013-02-23 17:54:00,
2013-02-23 09:59:00,40.9,34.6,30.19,South,174,2.0,11.0,78,0.01,,---,0.01,VWS V13.00,2013-02-23 17:59:00,
2013-02-23 10:04:00,41.1,34.5,30.19,SSE,167,5.0,11.0,77,0.01,,---,0.01,VWS V13.00,2013-02-23 18:04:00,
2013-02-23 10:09:00,41.1,34.8,30.20,SW,220,6.0,6.0,78,0.00,,---,0.01,VWS V13.00,2013-02-23 18:09:00,
2013-02-23 10:14:00,41.2,34.2,30.20,SSW,203,0.0,6.0,76,0.00,,---,0.01,VWS V13.00,2013-02-23 18:14:00,
2013-02-23 10:19:00,41.2,34.2,30.20,South,179,0.0,8.0,76,0.00,,---,0.01,VWS V13.00,2013-02-23 18:19:00,
2013-02-23 10:24:00,41.3,34.7,30.21,South,186,0.0,8.0,77,0.00,,---,0.01,VWS V13.00,2013-02-23 18:24:00,
2013-02-23 10:29:00,41.3,34.3,30.21,SSE,165,4.0,8.0,76,0.00,,---,0.01,VWS V13.00,2013-02-23 18:29:00,
2013-02-23 10:34:00,41.5,34.5,30.21,SW,224,0.0,8.0,76,0.00,,---,0.01,VWS V13.00,2013-02-23 18:34:00,
2013-02-23 10:39:00,41.6,34.6,30.21,SSW,206,0.0,3.0,76,0.00,,---,0.01,VWS V13.00,2013-02-23 18:39:00,
2013-02-23 10:44:00,41.8,34.8,30.21,SSW,200,2.0,7.0,76,0.00,,---,0.01,VWS V13.00,2013-02-23 18:44:00,
2013-02-23 10:49:00,41.9,34.6,30.21,SW,236,2.0,7.0,75,0.00,,---,0.01,VWS V13.00,2013-02-23 18:49:00,
2013-02-23 10:54:00,42.1,35.1,30.22,WSW,237,0.0,7.0,76,0.00,,---,0.01,VWS V13.00,2013-02-23 18:54:00,
2013-02-23 10:59:00,42.1,35.4,30.22,SSW,193,0.0,7.0,77,0.00,,---,0.01,VWS V13.00,2013-02-23 18:59:00,
2013-02-23 11:04:00,42.2,35.2,30.22,SSW,208,0.0,7.0,76,0.00,,---,0.01,VWS V13.00,2013-02-23 19:04:00,
2013-02-23 11:09:00,42.2,35.5,30.22,South,178,0.0,3.0,77,0.00,,---,0.01,VWS V13.00,2013-02-23 19:09:00,
2013-02-23 11:14:00,42.1,35.4,30.22,SW,223,0.0,3.0,77,0.00,,---,0.01,VWS V13.00,2013-02-23 19:14:00,
2013-02-23 11:19:00,42.1,35.4,30.22,SW,216,2.0,6.0,77,0.00,,---,0.01,VWS V13.00,2013-02-23 19:19:00,
2013-02-23 11:24:00,41.9,35.2,30.23,WSW,250,0.0,7.0,77,0.00,,---,0.01,VWS V13.00,2013-02-23 19:24:00,
2013-02-23 11:29:00,41.9,35.5,30.23,SW,227,3.0,7.0,78,0.00,,---,0.01,VWS V13.00,2013-02-23 19:29:00,
2013-02-23 11:34:00,41.9,35.2,30.23,SSW,192,4.0,7.0,77,0.00,,---,0.01,VWS V13.00,2013-02-23 19:34:00,
2013-02-23 11:39:00,41.9,35.2,30.24,South,174,1.0,6.0,77,0.00,,---,0.01,VWS V13.00,2013-02-23 19:39:00,
2013-02-23 11:44:00,41.9,34.9,30.24,SSW,209,2.0,8.0,76,0.00,,---,0.01,VWS V13.00,2013-02-23 19:44:00,
2013-02-23 11:49:00,42.1,35.1,30.24,SSW,193,1.0,8.0,76,0.00,,---,0.01,VWS V13.00,2013-02-23 19:49:00,
2013-02-23 11:54:00,42.2,34.5,30.24,SSW,208,0.0,8.0,74,0.00,,---,0.01,VWS V13.00,2013-02-23 19:54:00,
2013-02-23 11:59:00,42.3,35.0,30.24,SW,232,1.0,8.0,75,0.00,,---,0.01,VWS V13.00,2013-02-23 19:59:00,
2013-02-23 12:04:00,42.5,34.8,30.24,SW,220,1.0,8.0,74,0.00,,---,0.01,VWS V13.00,2013-02-23 20:04:00,
2013-02-23 12:09:00,42.5,34.8,30.24,SW,220,1.0,2.0,74,0.00,,---,0.01,VWS V13.00,2013-02-23 20:09:00,
2013-02-23 12:14:00,42.6,35.2,30.24,SSW,200,3.0,5.0,75,0.00,,---,0.01,VWS V13.00,2013-02-23 20:14:00,
2013-02-23 12:19:00,42.6,35.2,30.24,WSW,237,0.0,5.0,75,0.00,,---,0.01,VWS V13.00,2013-02-23 20:19:00,
2013-02-23 12:24:00,42.8,35.4,30.24,SW,217,0.0,5.0,75,0.00,,---,0.01,VWS V13.00,2013-02-23 20:24:00,
2013-02-23 12:29:00,42.8,35.1,30.24,SSE,167,2.0,5.0,74,0.00,,---,0.01,VWS V13.00,2013-02-23 20:29:00,
2013-02-23 12:34:00,42.9,35.2,30.24,SSW,212,0.0,5.0,74,0.00,,---,0.01,VWS V13.00,2013-02-23 20:34:00,
2013-02-23 12:39:00,43.1,35.7,30.24,WSW,256,1.0,4.0,75,0.00,,---,0.01,VWS V13.00,2013-02-23 20:39:00,
2013-02-23 12:44:00,43.2,35.5,30.24,South,188,0.0,6.0,74,0.00,,---,0.01,VWS V13.00,2013-02-23 20:44:00,
2013-02-23 12:49:00,43.2,35.5,30.24,South,181,3.0,6.0,74,0.00,,---,0.01,VWS V13.00,2013-02-23 20:49:00,
2013-02-23 12:54:00,43.3,35.6,30.24,SSW,206,5.0,6.0,74,0.00,,---,0.01,VWS V13.00,2013-02-23 20:54:00,
2013-02-23 12:59:00,43.3,35.2,30.24,SW,215,0.0,6.0,73,0.00,,---,0.01,VWS V13.00,2013-02-23 20:59:00,
2013-02-23 13:04:00,43.3,34.9,30.24,SW,230,1.0,8.0,72,0.00,,---,0.01,VWS V13.00,2013-02-23 21:04:00,
2013-02-23 13:09:00,43.5,35.8,30.23,SW,232,2.0,3.0,74,0.00,,---,0.01,VWS V13.00,2013-02-23 21:09:00,
2013-02-23 13:14:00,43.5,35.4,30.23,South,171,0.0,3.0,73,0.00,,---,0.01,VWS V13.00,2013-02-23 21:14:00,
2013-02-23 13:19:00,43.6,35.5,30.23,SSW,205,2.0,4.0,73,0.00,,---,0.01,VWS V13.00,2013-02-23 21:19:00,
2013-02-23 13:24:00,43.8,35.7,30.24,SSW,199,0.0,4.0,73,0.00,,---,0.01,VWS V13.00,2013-02-23 21:24:00,
2013-02-23 13:29:00,43.8,35.7,30.24,WSW,250,0.0,5.0,73,0.00,,---,0.01,VWS V13.00,2013-02-23 21:29:00,
2013-02-23 13:34:00,43.9,35.1,30.24,SW,217,1.0,5.0,71,0.00,,---,0.01,VWS V13.00,2013-02-23 21:34:00,
2013-02-23 13:39:00,44.1,35.3,30.24,SW,217,0.0,2.0,71,0.00,,---,0.01,VWS V13.00,2013-02-23 21:39:00,
2013-02-23 13:44:00,44.1,34.6,30.24,SW,219,0.0,2.0,69,0.00,,---,0.01,VWS V13.00,2013-02-23 21:44:00,
2013-02-23 13:49:00,44.2,35.0,30.24,SW,219,0.0,2.0,70,0.00,,---,0.01,VWS V13.00,2013-02-23 21:49:00,
2013-02-23 13:54:00,44.3,35.2,30.25,SW,219,0.0,2.0,70,0.00,,---,0.01,VWS V13.00,2013-02-23 21:54:00,
2013-02-23 13:59:00,44.5,35.3,30.25,SW,219,0.0,2.0,70,0.00,,---,0.01,VWS V13.00,2013-02-23 21:59:00,
2013-02-23 14:04:00,44.5,35.0,30.25,SW,219,0.0,2.0,69,0.00,,---,0.01,VWS V13.00,2013-02-23 22:04:00,
2013-02-23 14:09:00,44.5,35.3,30.25,SW,219,0.0,0.0,70,0.00,,---,0.01,VWS V13.00,2013-02-23 22:09:00,
2013-02-23 14:14:00,44.5,35.3,30.25,SW,219,0.0,1.0,70,0.00,,---,0.01,VWS V13.00,2013-02-23 22:14:00,
2013-02-23 14:19:00,44.5,35.3,30.25,SSW,206,1.0,2.0,70,0.00,,---,0.01,VWS V13.00,2013-02-23 22:19:00,
2013-02-23 14:24:00,44.5,35.0,30.25,WNW,302,1.0,5.0,69,0.00,,---,0.01,VWS V13.00,2013-02-23 22:24:00,
2013-02-23 14:29:00,44.5,35.7,30.25,South,182,0.0,6.0,71,0.00,,---,0.01,VWS V13.00,2013-02-23 22:29:00,
2013-02-23 14:34:00,44.5,35.0,30.25,SSE,164,0.0,6.0,69,0.00,,---,0.01,VWS V13.00,2013-02-23 22:34:00,
2013-02-23 14:39:00,44.5,35.3,30.26,SSE,164,0.0,2.0,70,0.00,,---,0.01,VWS V13.00,2013-02-23 22:39:00,
2013-02-23 14:44:00,44.5,35.0,30.26,SSW,192,0.0,3.0,69,0.00,,---,0.01,VWS V13.00,2013-02-23 22:44:00,
2013-02-23 14:49:00,44.5,35.7,30.26,SSW,202,2.0,5.0,71,0.00,,---,0.01,VWS V13.00,2013-02-23 22:49:00,
2013-02-23 14:54:00,44.3,34.4,30.27,SSW,200,0.0,6.0,68,0.00,,---,0.01,VWS V13.00,2013-02-23 22:54:00,
2013-02-23 14:59:00,44.2,34.3,30.27,WSW,254,0.0,12.0,68,0.00,,---,0.01,VWS V13.00,2013-02-23 22:59:00,
2013-02-23 15:04:00,44.2,35.0,30.27,WSW,254,0.0,12.0,70,0.00,,---,0.01,VWS V13.00,2013-02-23 23:04:00,
2013-02-23 15:09:00,44.2,34.7,30.28,SW,216,0.0,2.0,69,0.00,,---,0.01,VWS V13.00,2013-02-23 23:09:00,
2013-02-23 15:14:00,44.2,35.0,30.28,WSW,240,0.0,5.0,70,0.00,,---,0.01,VWS V13.00,2013-02-23 23:14:00,
2013-02-23 15:19:00,44.2,35.0,30.28,WNW,287,1.0,5.0,70,0.00,,---,0.01,VWS V13.00,2013-02-23 23:19:00,
2013-02-23 15:24:00,44.2,34.7,30.28,SW,230,0.0,5.0,69,0.00,,---,0.01,VWS V13.00,2013-02-23 23:24:00,
2013-02-23 15:29:00,44.3,34.8,30.28,WSW,246,0.0,5.0,69,0.00,,---,0.01,VWS V13.00,2013-02-23 23:29:00,
2013-02-23 15:34:00,44.3,34.4,30.28,NNW,329,0.0,5.0,68,0.00,,---,0.01,VWS V13.00,2013-02-23 23:34:00,
2013-02-23 15:39:00,44.3,34.4,30.28,West,267,0.0,1.0,68,0.00,,---,0.01,VWS V13.00,2013-02-23 23:39:00,
2013-02-23 15:44:00,44.3,34.8,30.28,West,267,0.0,2.0,69,0.00,,---,0.01,VWS V13.00,2013-02-23 23:44:00,
2013-02-23 15:49:00,44.5,35.0,30.28,West,267,0.0,2.0,69,0.00,,---,0.01,VWS V13.00,2013-02-23 23:49:00,
2013-02-23 15:54:00,44.5,34.6,30.28,SSE,154,0.0,2.0,68,0.00,,---,0.01,VWS V13.00,2013-02-23 23:54:00,
2013-02-23 15:59:00,44.5,35.0,30.28,West,261,0.0,3.0,69,0.00,,---,0.01,VWS V13.00,2013-02-23 23:59:00,
2013-02-23 16:04:00,44.5,35.0,30.28,SW,217,0.0,3.0,69,0.00,,---,0.01,VWS V13.00,2013-02-24 00:04:00,
2013-02-23 16:09:00,44.5,34.6,30.29,SW,217,0.0,0.0,68,0.00,,---,0.01,VWS V13.00,2013-02-24 00:09:00,
2013-02-23 16:14:00,44.5,34.6,30.29,SW,217,0.0,0.0,68,0.00,,---,0.01,VWS V13.00,2013-02-24 00:14:00,
2013-02-23 16:19:00,44.3,34.8,30.29,SW,217,0.0,1.0,69,0.00,,---,0.01,VWS V13.00,2013-02-24 00:19:00,
2013-02-23 16:24:00,44.3,34.8,30.30,SW,217,0.0,1.0,69,0.00,,---,0.01,VWS V13.00,2013-02-24 00:24:00,
2013-02-23 16:29:00,44.2,34.3,30.30,West,261,2.0,5.0,68,0.00,,---,0.01,VWS V13.00,2013-02-24 00:29:00,
2013-02-23 16:34:00,44.2,34.7,30.30,South,184,2.0,5.0,69,0.00,,---,0.01,VWS V13.00,2013-02-24 00:34:00,
2013-02-23 16:39:00,44.2,34.7,30.30,South,181,0.0,5.0,69,0.00,,---,0.01,VWS V13.00,2013-02-24 00:39:00,
2013-02-23 16:44:00,44.2,34.7,30.30,SSW,205,0.0,5.0,69,0.00,,---,0.01,VWS V13.00,2013-02-24 00:44:00,
2013-02-23 16:49:00,44.1,34.6,30.30,WSW,240,1.0,6.0,69,0.00,,---,0.01,VWS V13.00,2013-02-24 00:49:00,
2013-02-23 16:54:00,44.1,34.6,30.30,SSW,202,2.0,6.0,69,0.00,,---,0.01,VWS V13.00,2013-02-24 00:54:00,
2013-02-23 16:59:00,44.1,34.6,30.30,SSE,147,4.0,6.0,69,0.00,,---,0.01,VWS V13.00,2013-02-24 00:59:00,
2013-02-23 17:04:00,44.1,35.0,30.30,SSW,193,0.0,6.0,70,0.00,,---,0.01,VWS V13.00,2013-02-24 01:04:00,
2013-02-23 17:09:00,43.9,34.0,30.30,SW,229,1.0,3.0,68,0.00,,---,0.01,VWS V13.00,2013-02-24 01:09:00,
2013-02-23 17:14:00,43.8,33.6,30.30,SSW,199,0.0,3.0,67,0.00,,---,0.01,VWS V13.00,2013-02-24 01:14:00,
2013-02-23 17:19:00,43.8,33.2,30.30,North,0,0.0,3.0,66,0.00,,---,0.01,VWS V13.00,2013-02-24 01:19:00,
2013-02-23 17:24:00,43.6,33.4,30.30,North,0,0.0,3.0,67,0.00,,---,0.01,VWS V13.00,2013-02-24 01:24:00,
2013-02-23 17:29:00,43.5,32.9,30.30,WSW,243,0.0,4.0,66,0.00,,---,0.01,VWS V13.00,2013-02-24 01:29:00,
2013-02-23 17:34:00,43.3,32.7,30.30,WSW,248,0.0,4.0,66,0.00,,---,0.01,VWS V13.00,2013-02-24 01:34:00,
2013-02-23 17:39:00,43.2,33.0,30.31,WSW,248,0.0,0.0,67,0.00,,---,0.01,VWS V13.00,2013-02-24 01:39:00,
2013-02-23 17:44:00,43.1,33.3,30.31,WNW,292,0.0,2.0,68,0.00,,---,0.01,VWS V13.00,2013-02-24 01:44:00,
2013-02-23 17:49:00,42.8,33.3,30.31,NNW,332,0.0,2.0,69,0.00,,---,0.01,VWS V13.00,2013-02-24 01:49:00,
2013-02-23 17:54:00,42.6,33.2,30.32,NW,319,0.0,2.0,69,0.00,,---,0.01,VWS V13.00,2013-02-24 01:54:00,
2013-02-23 17:59:00,42.5,33.1,30.32,NNW,332,0.0,2.0,69,0.00,,---,0.01,VWS V13.00,2013-02-24 01:59:00,
2013-02-23 18:04:00,42.5,33.1,30.32,NNW,332,0.0,2.0,69,0.00,,---,0.01,VWS V13.00,2013-02-24 02:04:00,
2013-02-23 18:09:00,42.3,32.9,30.33,NNW,333,0.0,0.0,69,0.00,,---,0.01,VWS V13.00,2013-02-24 02:09:00,
2013-02-23 18:14:00,42.1,32.7,30.33,WSW,251,0.0,2.0,69,0.00,,---,0.01,VWS V13.00,2013-02-24 02:14:00,
2013-02-23 18:19:00,41.9,32.1,30.33,WSW,248,0.0,2.0,68,0.00,,---,0.01,VWS V13.00,2013-02-24 02:19:00,
2013-02-23 18:24:00,41.9,32.1,30.34,WSW,248,0.0,2.0,68,0.00,,---,0.01,VWS V13.00,2013-02-24 02:24:00,
2013-02-23 18:29:00,41.8,32.0,30.34,WSW,248,0.0,2.0,68,0.00,,---,0.01,VWS V13.00,2013-02-24 02:29:00,
2013-02-23 18:34:00,41.6,31.8,30.34,SSW,213,0.0,4.0,68,0.00,,---,0.01,VWS V13.00,2013-02-24 02:34:00,
2013-02-23 18:39:00,41.5,32.1,30.35,South,184,0.0,0.0,69,0.00,,---,0.01,VWS V13.00,2013-02-24 02:39:00,
2013-02-23 18:44:00,41.3,31.9,30.35,WSW,251,0.0,3.0,69,0.00,,---,0.01,VWS V13.00,2013-02-24 02:44:00,
2013-02-23 18:49:00,41.2,31.8,30.35,South,181,1.0,7.0,69,0.00,,---,0.01,VWS V13.00,2013-02-24 02:49:00,
2013-02-23 18:54:00,41.1,32.4,30.35,South,191,0.0,7.0,71,0.00,,---,0.01,VWS V13.00,2013-02-24 02:54:00,
2013-02-23 18:59:00,40.9,32.2,30.35,South,179,0.0,7.0,71,0.00,,---,0.01,VWS V13.00,2013-02-24 02:59:00,
2013-02-23 19:04:00,40.6,32.0,30.35,SSE,160,0.0,8.0,71,0.00,,---,0.01,VWS V13.00,2013-02-24 03:04:00,
2013-02-23 19:09:00,40.5,32.2,30.35,SSE,165,0.0,1.0,72,0.00,,---,0.01,VWS V13.00,2013-02-24 03:09:00,
2013-02-23 19:14:00,40.3,32.0,30.35,SW,232,1.0,6.0,72,0.00,,---,0.01,VWS V13.00,2013-02-24 03:14:00,
2013-02-23 19:19:00,40.2,32.2,30.35,SSW,202,0.0,6.0,73,0.00,,---,0.01,VWS V13.00,2013-02-24 03:19:00,
2013-02-23 19:24:00,40.1,32.2,30.36,South,189,0.0,7.0,73,0.00,,---,0.01,VWS V13.00,2013-02-24 03:24:00,
2013-02-23 19:29:00,39.9,32.0,30.36,South,178,0.0,7.0,73,0.00,,---,0.01,VWS V13.00,2013-02-24 03:29:00,
2013-02-23 19:34:00,39.9,32.3,30.36,SSE,161,2.0,7.0,74,0.00,,---,0.01,VWS V13.00,2013-02-24 03:34:00,
2013-02-23 19:39:00,39.8,32.2,30.36,SSW,192,0.0,6.0,74,0.00,,---,0.01,VWS V13.00,2013-02-24 03:39:00,
2013-02-23 19:44:00,39.8,32.2,30.36,SSW,198,3.0,6.0,74,0.00,,---,0.01,VWS V13.00,2013-02-24 03:44:00,
2013-02-23 19:49:00,39.8,32.2,30.36,SSE,164,2.0,6.0,74,0.00,,---,0.01,VWS V13.00,2013-02-24 03:49:00,
2013-02-23 19:54:00,39.6,32.0,30.37,South,191,0.0,7.0,74,0.00,,---,0.01,VWS V13.00,2013-02-24 03:54:00,
2013-02-23 19:59:00,39.6,32.3,30.37,SW,226,2.0,7.0,75,0.00,,---,0.01,VWS V13.00,2013-02-24 03:59:00,
2013-02-23 20:04:00,39.5,32.2,30.37,SW,224,2.0,7.0,75,0.00,,---,0.01,VWS V13.00,2013-02-24 04:04:00,
2013-02-23 20:09:00,39.5,32.2,30.38,SSW,202,0.0,3.0,75,0.00,,---,0.01,VWS V13.00,2013-02-24 04:09:00,
2013-02-23 20:14:00,39.3,32.4,30.38,SW,230,0.0,5.0,76,0.00,,---,0.01,VWS V13.00,2013-02-24 04:14:00,
2013-02-23 20:18:00,39.3,32.4,30.38,SSW,196,0.0,5.0,76,0.00,,---,0.01,VWS V13.00,2013-02-24 04:18:00,
2013-02-23 20:23:00,39.2,32.3,30.38,ESE,112,0.0,5.0,76,0.00,,---,0.01,VWS V13.00,2013-02-24 04:23:00,
2013-02-23 20:28:00,39.2,32.6,30.38,South,169,0.0,5.0,77,0.00,,---,0.01,VWS V13.00,2013-02-24 04:28:00,
2013-02-23 20:33:00,39.1,32.5,30.38,South,181,2.0,10.0,77,0.00,,---,0.01,VWS V13.00,2013-02-24 04:33:00,
2013-02-23 20:38:00,39.1,32.5,30.38,SSW,195,0.0,2.0,77,0.00,,---,0.01,VWS V13.00,2013-02-24 04:38:00,
2013-02-23 20:43:00,39.1,32.5,30.38,SSW,196,0.0,5.0,77,0.00,,---,0.01,VWS V13.00,2013-02-24 04:43:00,
2013-02-23 20:48:00,39.1,32.5,30.38,SSW,196,0.0,12.0,77,0.00,,---,0.01,VWS V13.00,2013-02-24 04:48:00,
2013-02-23 20:53:00,39.1,32.2,30.39,SSW,205,2.0,12.0,76,0.00,,---,0.01,VWS V13.00,2013-02-24 04:53:00,
2013-02-23 20:58:00,39.2,32.3,30.39,South,179,3.0,12.0,76,0.00,,---,0.01,VWS V13.00,2013-02-24 04:58:00,
2013-02-23 21:00:00,39.2,32.3,30.39,SSW,213,1.0,12.0,76,0.00,,---,0.01,VWS V13.00,2013-02-24 05:00:00,
2013-02-23 21:05:00,39.2,32.3,30.39,SSW,209,5.0,12.0,76,0.00,,---,0.01,VWS V13.00,2013-02-24 05:05:00,
2013-02-23 21:10:00,39.2,32.3,30.39,SSW,199,6.0,6.0,76,0.00,,---,0.01,VWS V13.00,2013-02-24 05:10:00,
2013-02-23 21:15:00,39.2,32.3,30.39,SSW,200,2.0,6.0,76,0.00,,---,0.01,VWS V13.00,2013-02-24 05:15:00,
2013-02-23 21:20:00,39.2,32.6,30.39,East,100,0.0,7.0,77,0.00,,---,0.01,VWS V13.00,2013-02-24 05:20:00,
2013-02-23 21:25:00,39.2,32.6,30.39,South,191,0.0,7.0,77,0.00,,---,0.01,VWS V13.00,2013-02-24 05:25:00,
2013-02-23 21:30:00,39.1,32.5,30.39,South,178,0.0,7.0,77,0.00,,---,0.01,VWS V13.00,2013-02-24 05:30:00,
2013-02-23 21:35:00,39.1,32.5,30.39,SSW,192,0.0,7.0,77,0.00,,---,0.01,VWS V13.00,2013-02-24 05:35:00,
2013-02-23 21:40:00,38.9,32.6,30.39,SW,215,0.0,2.0,78,0.00,,---,0.01,VWS V13.00,2013-02-24 05:40:00,
2013-02-23 21:45:00,38.9,32.6,30.39,SSW,200,0.0,3.0,78,0.00,,---,0.01,VWS V13.00,2013-02-24 05:45:00,
2013-02-23 21:50:00,38.8,32.5,30.39,South,189,0.0,3.0,78,0.00,,---,0.01,VWS V13.00,2013-02-24 05:50:00,
2013-02-23 21:55:00,38.8,32.5,30.39,SSW,208,0.0,5.0,78,0.00,,---,0.01,VWS V13.00,2013-02-24 05:55:00,
2013-02-23 22:00:00,38.8,32.5,30.39,SSW,210,0.0,5.0,78,0.00,,---,0.01,VWS V13.00,2013-02-24 06:00:00,
2013-02-23 22:05:00,38.8,32.5,30.39,South,178,0.0,5.0,78,0.00,,---,0.01,VWS V13.00,2013-02-24 06:05:00,
2013-02-23 22:10:00,38.9,32.6,30.40,South,189,0.0,3.0,78,0.00,,---,0.01,VWS V13.00,2013-02-24 06:10:00,
2013-02-23 22:15:00,38.9,32.6,30.40,SSW,213,1.0,4.0,78,0.00,,---,0.01,VWS V13.00,2013-02-24 06:15:00,
2013-02-23 22:20:00,38.9,32.6,30.40,SW,222,0.0,4.0,78,0.00,,---,0.01,VWS V13.00,2013-02-24 06:20:00,
2013-02-23 22:25:00,38.9,32.6,30.40,South,172,1.0,4.0,78,0.00,,---,0.01,VWS V13.00,2013-02-24 06:25:00,
2013-02-23 22:30:00,38.9,32.6,30.40,South,185,0.0,4.0,78,0.00,,---,0.01,VWS V13.00,2013-02-24 06:30:00,
2013-02-23 22:35:00,38.9,32.6,30.40,SSE,160,0.0,4.0,78,0.00,,---,0.01,VWS V13.00,2013-02-24 06:35:00,
2013-02-23 22:40:00,38.9,32.6,30.40,SSW,196,1.0,1.0,78,0.00,,---,0.01,VWS V13.00,2013-02-24 06:40:00,
2013-02-23 22:45:00,38.8,32.5,30.40,South,174,0.0,2.0,78,0.00,,---,0.01,VWS V13.00,2013-02-24 06:45:00,
2013-02-23 22:50:00,38.8,32.5,30.40,SSW,192,0.0,2.0,78,0.00,,---,0.01,VWS V13.00,2013-02-24 06:50:00,
2013-02-23 22:55:00,38.8,32.5,30.40,South,178,0.0,2.0,78,0.00,,---,0.01,VWS V13.00,2013-02-24 06:55:00,
2013-02-23 23:00:00,38.8,32.5,30.40,SSW,196,0.0,2.0,78,0.00,,---,0.01,VWS V13.00,2013-02-24 07:00:00,
2013-02-23 23:05:00,38.8,32.5,30.40,WSW,237,0.0,6.0,78,0.00,,---,0.01,VWS V13.00,2013-02-24 07:05:00,
2013-02-23 23:10:00,38.8,32.5,30.41,SSW,193,0.0,0.0,78,0.00,,---,0.01,VWS V13.00,2013-02-24 07:10:00,
2013-02-23 23:15:00,38.8,32.5,30.41,SSW,193,0.0,1.0,78,0.00,,---,0.01,VWS V13.00,2013-02-24 07:15:00,
2013-02-23 23:20:00,38.8,32.5,30.41,WSW,248,0.0,1.0,78,0.00,,---,0.01,VWS V13.00,2013-02-24 07:20:00,
2013-02-23 23:25:00,38.8,32.5,30.40,WSW,240,0.0,2.0,78,0.00,,---,0.01,VWS V13.00,2013-02-24 07:25:00,
2013-02-23 23:30:00,38.8,32.5,30.40,SE,143,0.0,2.0,78,0.00,,---,0.01,VWS V13.00,2013-02-24 07:30:00,
2013-02-23 23:35:00,38.8,32.5,30.40,South,188,0.0,2.0,78,0.00,,---,0.01,VWS V13.00,2013-02-24 07:35:00,
2013-02-23 23:40:00,38.6,32.3,30.41,South,182,0.0,1.0,78,0.00,,---,0.01,VWS V13.00,2013-02-24 07:40:00,
2013-02-23 23:45:00,38.6,32.3,30.41,SSE,164,0.0,1.0,78,0.00,,---,0.01,VWS V13.00,2013-02-24 07:45:00,
2013-02-23 23:50:00,38.6,32.3,30.41,SSE,165,0.0,1.0,78,0.00,,---,0.01,VWS V13.00,2013-02-24 07:50:00,
2013-02-23 23:55:00,38.6,32.3,30.41,SSW,200,0.0,2.0,78,0.00,,---,0.01,VWS V13.00,2013-02-24 07:55:00,